Tracking 31027 objects as of 19-Jul-2025
HD Live streaming from Space Station
objects crossing your sky now

DELTA 1 DEB

Track DELTA 1 DEB now!
10-day predictions


NORAD ID: 10252
Int'l Code: 1977-065CD
Perigee: 593.3 km
Apogee: 1,738.9 km
Inclination: 28.9 °
Period: 108.5 minutes
Semi major axis: 7537 km
RCS: 0.0465 m2 (small)
Launch date: July 14, 1977
Source: United States (US)
Launch site: AIR FORCE EASTERN TEST RANGE (AFETR)

Note: This is SATELLITE DEBRIS
Your satellite tracking list
ST5-A
Track 1 satellite(s)




NASA's NSSDC Master Catalog

Two Line Element Set (TLE):
1 10252U 77065CD  25199.62880410  .00000536  00000-0  19125-3 0  9995
2 10252  28.8503   9.5000 0759973 277.1447  74.3374 13.26776918295491
Source of the keplerian elements: AFSPC